User: anonymous   Login
Location: Fort Wayne
(41.1310°N, 85.1290°W)
Time: 23:34:56
(UTC-04:00)
Language:

Cosmos 2219 Rocket - Orbit

View from above orbital plane
View from above orbital plane
View from above satellite
View from above satellite

Ground track
Ground track

The orbit data is extracted from the following two-line orbital elements,

1 22220U 92076B   16126.63200755 -.00000143  00000-0 -47607-4 0  9994
2 22220  71.0000 197.1155 0012914 184.1361 283.3698 14.16394732213069
Epoch (UTC): 05 May 2016 15:10:05
Eccentricity: 0.0012914
inclination: 71.0000°
perigee height: 828 km
apogee height: 847 km
right ascension of ascending node: 197.1155°
argument of perigee: 184.1361°
revolutions per day: 14.16394732
mean anomaly at epoch: 283.3698°
orbit number at epoch: 21306

The dashed part of the orbit path shows where the satellite is in the earth's shadow,  

DLR